ORB348 UWGG-USSS

Flight info

Callsign ORB348
Flight time N/A
Altitude 37000
Route PESAB2S PESAB T765 GEMKI L94 LOMBI LOMBI6S
Aircraft B738/M-SDE2E3FGHIRWXY/LB1

Departure

Time 2026-05-09 13:21
Airport Nizhny Novgorod / Strigino International Airport (UWGG)

Arrival

Time N/A
Airport Koltsovo Airport (USSS)
Time Latitude Longitude Altitude Speed Heading
2026-05-09 12:40 56.22096 43.78910 255 ft 0 kts 282°
2026-05-09 13:16 56.22056 43.78777 254 ft 14 kts 235°
2026-05-09 13:16 56.21965 43.78709 254 ft 14 kts 192°
2026-05-09 13:16 56.21888 43.78603 253 ft 14 kts 208°
2026-05-09 13:16 56.21793 43.78557 252 ft 14 kts 191°
2026-05-09 13:17 56.21694 43.78523 251 ft 14 kts 191°
2026-05-09 13:17 56.21598 43.78487 251 ft 13 kts 192°
2026-05-09 13:17 56.21516 43.78454 252 ft 8 kts 199°
2026-05-09 13:17 56.21479 43.78389 253 ft 6 kts 253°
2026-05-09 13:18 56.21482 43.78311 253 ft 5 kts 280°
2026-05-09 13:18 56.21489 43.78245 253 ft 4 kts 284°
2026-05-09 13:18 56.21497 43.78190 253 ft 4 kts 284°
2026-05-09 13:18 56.21506 43.78129 253 ft 7 kts 288°
2026-05-09 13:19 56.21560 43.78060 252 ft 12 kts
2026-05-09 13:19 56.21604 43.78071 251 ft 0 kts 10°
2026-05-09 13:20 56.21649 43.78086 251 ft 11 kts 12°
2026-05-09 13:20 56.21875 43.78171 250 ft 57 kts 13°
2026-05-09 13:20 56.22440 43.78386 250 ft 118 kts
2026-05-09 13:20 56.23455 43.78759 334 ft 170 kts 11°
2026-05-09 13:21 56.24626 43.79090 1087 ft 169 kts
2026-05-09 13:21 56.25692 43.79493 1835 ft 162 kts 16°
2026-05-09 13:21 56.26820 43.79999 2195 ft 173 kts 14°
2026-05-09 13:21 56.28057 43.80455 2557 ft 187 kts 12°
2026-05-09 13:22 56.28922 43.80766 2825 ft 195 kts 13°
2026-05-09 13:22 56.30288 43.81275 3189 ft 209 kts 13°
2026-05-09 13:22 56.31745 43.81834 3579 ft 221 kts 13°
2026-05-09 13:23 56.40297 43.86881 6815 ft 260 kts 55°
2026-05-09 13:24 56.40991 43.89923 7471 ft 269 kts 76°
2026-05-09 13:24 56.41136 43.93328 8146 ft 277 kts 90°
2026-05-09 13:24 56.40876 43.96795 8814 ft 285 kts 98°
2026-05-09 13:24 56.40463 44.00327 9477 ft 290 kts 99°
2026-05-09 13:25 56.40032 44.03878 10140 ft 296 kts 99°
2026-05-09 13:25 56.39605 44.07578 10654 ft 307 kts 98°
2026-05-09 13:25 56.38741 44.15575 11359 ft 341 kts 98°
2026-05-09 13:26 56.38205 44.19792 11672 ft 360 kts 105°
2026-05-09 13:26 56.37104 44.23967 11982 ft 380 kts 122°
2026-05-09 13:26 56.35488 44.27836 12300 ft 397 kts 128°
2026-05-09 13:26 56.33667 44.31732 12788 ft 408 kts 130°
2026-05-09 13:27 56.31828 44.35572 13393 ft 414 kts 130°
2026-05-09 13:27 56.29932 44.39543 13994 ft 421 kts 130°
2026-05-09 13:27 56.28033 44.43566 14695 ft 426 kts 130°
2026-05-09 13:27 56.26118 44.47668 15431 ft 430 kts 129°
2026-05-09 13:28 56.24195 44.51818 16098 ft 436 kts 129°
2026-05-09 13:28 56.22274 44.55979 16774 ft 441 kts 129°
2026-05-09 13:28 56.20309 44.60243 17466 ft 445 kts 130°
2026-05-09 13:28 56.18350 44.64491 18072 ft 450 kts 130°
2026-05-09 13:29 56.16334 44.68856 18724 ft 455 kts 131°
2026-05-09 13:29 56.14321 44.73208 19375 ft 458 kts 131°
2026-05-09 13:29 56.12271 44.77627 19952 ft 464 kts 131°
2026-05-09 13:29 56.10195 44.82096 20569 ft 468 kts 131°
2026-05-09 13:30 56.08100 44.86593 21154 ft 472 kts 131°
2026-05-09 13:30 56.06022 44.91086 21706 ft 476 kts 130°
2026-05-09 13:30 56.04094 44.95928 22228 ft 482 kts 122°
2026-05-09 13:30 56.02537 45.01305 22753 ft 487 kts 112°
2026-05-09 13:31 56.01465 45.07020 23298 ft 489 kts 103°
2026-05-09 13:31 56.00884 45.12998 23789 ft 492 kts 93°
2026-05-09 13:31 56.00773 45.19104 24337 ft 493 kts 86°
2026-05-09 13:31 56.00968 45.25217 24849 ft 495 kts 82°
2026-05-09 13:32 56.01321 45.31273 25391 ft 497 kts 80°
2026-05-09 13:32 56.02142 45.43617 26390 ft 504 kts 80°
2026-05-09 13:32 56.02524 45.49903 26821 ft 509 kts 81°
2026-05-09 13:33 56.02861 45.56153 27391 ft 511 kts 81°
2026-05-09 13:33 56.03167 45.62483 27802 ft 516 kts 82°
2026-05-09 13:33 56.03445 45.68901 28496 ft 514 kts 83°
2026-05-09 13:33 56.03698 45.75196 29220 ft 511 kts 84°
2026-05-09 13:34 56.03937 45.81543 29881 ft 509 kts 84°
2026-05-09 13:34 56.04164 45.87764 30379 ft 509 kts 84°
2026-05-09 13:34 56.04391 45.94127 30926 ft 509 kts 84°
2026-05-09 13:34 56.04613 46.00432 31478 ft 508 kts 83°
2026-05-09 13:35 56.04832 46.06699 31921 ft 509 kts 83°
2026-05-09 13:35 56.05047 46.12944 32393 ft 508 kts 83°
2026-05-09 13:35 56.05264 46.19289 32838 ft 509 kts 83°
2026-05-09 13:35 56.05475 46.25555 33293 ft 508 kts 83°
2026-05-09 13:36 56.05685 46.31867 33824 ft 506 kts 83°
2026-05-09 13:36 56.05891 46.38114 34249 ft 506 kts 83°
2026-05-09 13:36 56.06094 46.44369 34671 ft 505 kts 83°
2026-05-09 13:36 56.06295 46.50645 35077 ft 504 kts 83°
2026-05-09 13:37 56.06465 46.56814 35352 ft 503 kts 84°
2026-05-09 13:37 56.06573 46.63072 35541 ft 504 kts 85°
2026-05-09 13:37 56.06636 46.69407 35732 ft 504 kts 87°
2026-05-09 13:37 56.06677 46.75641 35909 ft 504 kts 87°
2026-05-09 13:38 56.06708 46.81930 36071 ft 504 kts 87°
2026-05-09 13:38 56.06739 46.88140 36231 ft 504 kts 88°
2026-05-09 13:38 56.06770 46.94371 36486 ft 503 kts 88°
2026-05-09 13:38 56.06802 47.00616 36752 ft 502 kts 87°
2026-05-09 13:39 56.06835 47.06858 37014 ft 501 kts 87°
2026-05-09 13:39 56.06869 47.13069 37198 ft 502 kts 87°
2026-05-09 13:39 56.06936 47.25520 37208 ft 503 kts 87°
2026-05-09 13:40 56.06994 47.37990 37206 ft 501 kts 87°
2026-05-09 13:40 56.07040 47.50379 37195 ft 502 kts 87°
2026-05-09 13:41 56.07075 47.62907 37201 ft 502 kts 86°
2026-05-09 13:41 56.07098 47.75288 37195 ft 502 kts 88°
2026-05-09 13:42 56.07107 47.87794 37195 ft 503 kts 88°
2026-05-09 13:42 56.07102 48.00300 37194 ft 503 kts 88°
2026-05-09 13:43 56.07091 48.12760 37193 ft 504 kts 88°
2026-05-09 13:43 56.07069 48.25273 37192 ft 504 kts 88°
2026-05-09 13:44 56.07033 48.37818 37191 ft 503 kts 88°
2026-05-09 13:44 56.06983 48.50227 37194 ft 504 kts 88°
2026-05-09 13:45 56.06953 48.56522 37314 ft 507 kts 88°
2026-05-09 13:45 56.06920 48.62729 37301 ft 504 kts 88°
2026-05-09 13:45 56.06846 48.75245 37188 ft 502 kts 89°
2026-05-09 13:46 56.06762 48.87741 37233 ft 502 kts 89°
2026-05-09 13:46 56.06672 49.00266 36986 ft 506 kts 89°
2026-05-09 13:47 56.06618 49.06507 37209 ft 505 kts 89°
2026-05-09 13:47 56.06560 49.12798 37168 ft 504 kts 89°
2026-05-09 13:47 56.06426 49.25313 37172 ft 505 kts 89°
2026-05-09 13:48 56.06285 49.37769 37172 ft 506 kts 89°
2026-05-09 13:48 56.06128 49.50336 37156 ft 506 kts 89°
2026-05-09 13:49 56.05968 49.62920 37176 ft 506 kts 89°
2026-05-09 13:49 56.05794 49.75477 37173 ft 507 kts 90°
2026-05-09 13:50 56.05609 49.88098 37160 ft 508 kts 90°
2026-05-09 13:50 56.05412 50.00676 37180 ft 508 kts 90°
2026-05-09 13:51 56.05197 50.13307 37165 ft 508 kts 90°
2026-05-09 13:51 56.04962 50.25853 37155 ft 507 kts 90°
2026-05-09 13:52 56.04703 50.38505 37161 ft 507 kts 90°
2026-05-09 13:52 56.04438 50.51593 37134 ft 508 kts 90°
2026-05-09 13:53 56.03797 50.81239 37173 ft 511 kts 91°